FW6463 Weather Reports


time (UTC)temp
C
wind
direction
speed
KPH
gust
KPH
rain 1hr
cm
rain 24hr
cm
rain mn
cm
humidity
%
barometer
mb
20260505171044 27 270 17.7 24.1 0.00 0.03 0.03 48 1012.4
20260505170016 27 199 14.5 20.9 0.00 0.03 0.03 47 1012.7
20260505165041 27 220 12.9 17.7 0.00 0.03 0.03 48 1012.9
20260505164019 27 218 12.9 20.9 0.00 0.03 0.03 49 1013.0
20260505163038 26 231 16.1 25.7 0.00 0.03 0.03 49 1013.2
20260505162017 26 248 17.7 25.7 0.00 0.03 0.03 50 1013.2
20260505161015 26 247 17.7 25.7 0.00 0.03 0.03 50 1013.3
20260505153024 25 226 14.5 19.3 0.03 0.03 0.03 55 1013.5
20260505152027 -17 113 11.3 11.3 0.03 0.03 0.03 1013.7
20260505151032 25 235 14.5 22.5 0.03 0.03 0.03 56 1013.5
20260505125028 21 209 12.9 16.1 0.00 0.00 0.00 60 1013.9
20260505124033 21 211 9.7 19.3 0.00 0.00 0.00 61 1013.9
20260505123019 20 198 8.0 12.9 0.00 0.00 0.00 63 1013.9
20260505122025 20 161 8.0 11.3 0.00 0.00 0.00 65 1014.0
20260505121029 19 224 6.4 12.9 0.00 0.00 0.00 67 1014.0
20260505120015 18 236 8.0 12.9 0.00 0.00 0.00 68 1013.9
20260505115020 18 213 6.4 9.7 0.00 0.00 0.00 68 1013.8
20260505114024 18 219 6.4 8.0 0.00 0.00 0.00 69 1013.7
20260505113029 17 210 4.8 9.7 0.00 0.00 0.00 70 1013.7
20260505112016 17 194 8.0 12.9 0.00 0.00 0.00 69 1013.5
20260505111042 17 189 6.4 9.7 0.00 0.00 0.00 69 1013.5
20260505102028 17 191 8.0 9.7 0.00 0.00 0.00 72 1013.2
20260505101032 16 220 8.0 9.7 0.00 0.00 0.00 73 1013.2
20260505100019 16 223 4.8 6.4 0.00 0.00 0.00 74 1013.0
20260505095043 16 227 4.8 8.0 0.00 0.00 0.00 73 1013.0
20260505094028 16 244 6.4 8.0 0.00 0.00 0.00 72 1013.0
20260505093027 17 219 4.8 8.0 0.00 0.00 0.00 70 1012.8
20260505092019 17 168 8.0 12.9 0.00 0.00 0.00 70 1013.0
20260505091044 17 214 6.4 9.7 0.00 0.00 0.00 70 1012.8
20260505090023 17 211 8.0 11.3 0.00 0.00 0.00 69 1012.7
20260505085037 17 200 8.0 14.5 0.00 0.00 0.00 69 1012.8
20260505084021 17 236 8.0 16.1 0.00 0.00 0.00 69 1012.8
20260505083019 -17 0.0 0.0 0.00 0.00 0.00 1012.7
20260505082018 18 206 6.4 9.7 0.00 0.00 0.00 68 1012.7
20260505081140 18 216 6.4 11.3 0.00 0.00 0.00 67 1012.5
20260505080036 18 214 9.7 19.3 0.00 0.00 0.00 67 1012.5
20260505075026 18 224 8.0 12.9 0.00 0.00 0.00 66 1012.4
20260505074031 18 197 8.0 12.9 0.00 0.00 0.00 65 1012.4
20260505073019 18 230 8.0 12.9 0.00 0.00 0.00 65 1012.4
20260505072023 18 192 11.3 19.3 0.00 0.00 0.00 64 1012.3
20260505071028 18 228 9.7 16.1 0.00 0.00 0.00 64 1012.1
20260505070032 18 195 11.3 20.9 0.00 0.00 0.00 64 1012.2
20260505065020 18 197 9.7 14.5 0.00 0.00 0.00 64 1012.4
20260505064024 18 178 8.0 17.7 0.00 0.00 0.00 64 1012.4
20260505063028 18 203 9.7 14.5 0.00 0.00 0.00 66 1012.4
20260505062015 18 223 8.0 14.5 0.00 0.00 0.00 66 1012.5
20260505061020 18 223 8.0 11.3 0.00 0.00 0.00 66 1012.5
20260505060024 18 206 8.0 11.3 0.00 0.00 0.00 66 1012.6
20260505055029 18 197 6.4 14.5 0.00 0.00 0.00 67 1012.6
20260505054016 18 173 6.4 12.9 0.00 0.00 0.00 68 1012.7
20260505053022 18 211 8.0 16.1 0.00 0.00 0.00 67 1012.7
20260505052026 18 214 6.4 11.3 0.00 0.00 0.00 67 1012.6
20260505051052 18 235 4.8 9.7 0.00 0.00 0.00 66 1012.5
20260505041023 19 179 8.0 12.9 0.00 0.00 0.00 65 1012.2
20260505040028 18 185 8.0 16.1 0.00 0.00 0.00 67 1012.2
20260505035032 18 195 8.0 12.9 0.00 0.00 0.00 67 1012.2
20260505034019 18 187 8.0 12.9 0.00 0.00 0.00 67 1012.1
20260505033024 18 220 4.8 9.7 0.00 0.00 0.00 66 1012.2
20260505032029 18 194 6.4 12.9 0.00 0.00 0.00 66 1012.3
20260505031016 18 207 4.8 8.0 0.00 0.00 0.00 66 1012.4
20260505030020 18 224 4.8 9.7 0.00 0.00 0.00 66 1012.1
20260505025025 18 230 6.4 11.3 0.00 0.00 0.00 66 1012.2
20260505024050 18 191 3.2 6.4 0.00 0.00 0.00 65 1012.2
20260505023016 18 202 3.2 8.0 0.00 0.00 0.00 64 1012.1
20260505022021 19 210 6.4 8.0 0.00 0.00 0.00 64 1011.9
20260505021026 19 208 6.4 9.7 0.00 0.00 0.00 64 1011.8
20260505020032 19 166 8.0 11.3 0.00 0.00 0.00 63 1012.1
20260505015017 19 209 6.4 9.7 0.00 0.00 0.00 62 1012.1
20260505014023 20 212 6.4 11.3 0.00 0.00 0.00 59 1012.0
20260505013028 20 179 12.9 17.7 0.00 0.00 0.00 57 1011.8
20260505012026 20 186 11.3 16.1 0.00 0.00 0.00 56 1011.8
20260505011018 20 190 9.7 14.5 0.00 0.00 0.00 55 1011.5
20260505010023 -17 0.0 0.0 0.00 0.00 0.00 1011.4
20260505005042 20 187 8.0 14.5 0.00 0.00 0.00 55 1011.3
20260505004041 20 185 8.0 14.5 0.00 0.00 0.00 55 1011.3
20260505003020 20 187 11.3 24.1 0.00 0.00 0.00 54 1011.1
20260505002018 20 196 9.7 17.7 0.00 0.00 0.00 54 1011.1
20260505001017 21 189 11.3 16.1 0.00 0.00 0.00 53 1010.9
20260505000016 21 171 14.5 19.3 0.00 0.00 0.00 52 1010.9
20260504235022 21 181 11.3 16.1 0.00 0.00 0.00 52 1011.0
20260504234026 21 193 8.0 11.3 0.00 0.00 0.00 52 1011.0
20260504233030 21 191 8.0 12.9 0.00 0.00 0.00 51 1010.9
20260504232017 22 177 9.7 17.7 0.00 0.00 0.00 50 1011.0
20260504231022 23 209 9.7 16.1 0.00 0.00 0.00 49 1010.8
20260504230027 23 174 9.7 16.1 0.00 0.00 0.00 48 1011.0
20260504225033 23 183 8.0 12.9 0.00 0.00 0.00 47 1011.1
20260504224019 23 194 11.3 14.5 0.00 0.00 0.00 47 1011.1
20260504223043 24 191 8.0 14.5 0.00 0.00 0.00 46 1011.2
20260504222029 24 176 11.3 16.1 0.00 0.00 0.00 47 1011.2
20260504221032 25 185 11.3 20.9 0.00 0.00 0.00 46 1011.2
20260504220020 24 203 6.4 12.9 0.00 0.00 0.00 47 1011.2
20260504215025 25 189 12.9 22.5 0.00 0.00 0.00 47 1011.2
20260504214029 24 176 11.3 19.3 0.00 0.00 0.00 47 1011.2
20260504213015 24 185 9.7 14.5 0.00 0.00 0.00 47 1011.2
20260504212021 24 206 11.3 14.5 0.00 0.00 0.00 47 1011.2
20260504211025 23 194 14.5 19.3 0.00 0.00 0.00 48 1011.2
20260504210030 23 179 14.5 20.9 0.00 0.00 0.00 48 1011.3
20260504205017 23 163 11.3 19.3 0.00 0.00 0.00 48 1011.3
20260504204021 23 237 12.9 24.1 0.00 0.00 0.00 48 1011.3
20260504203027 24 198 11.3 17.7 0.00 0.00 0.00 48 1011.4
20260504202031 24 191 11.3 14.5 0.00 0.00 0.00 47 1011.5
20260504201018 23 209 12.9 20.9 0.00 0.00 0.00 47 1011.7
20260504200023 24 191 9.7 16.1 0.00 0.00 0.00 48 1011.8
20260504195028 23 172 14.5 24.1 0.00 0.00 0.00 48 1012.0
20260504194032 23 210 11.3 17.7 0.00 0.00 0.00 48 1012.2
20260504193039 23 193 9.7 12.9 0.00 0.00 0.00 47 1012.4
20260504192044 23 223 12.9 16.1 0.00 0.00 0.00 48 1012.5
20260504191028 23 195 11.3 14.5 0.00 0.00 0.00 49 1012.6
20260504190015 23 210 11.3 17.7 0.00 0.00 0.00 47 1012.8
20260504185040 23 188 9.7 17.7 0.00 0.00 0.00 49 1013.1
20260504184106 23 214 12.9 17.7 0.00 0.00 0.00 49 1013.3
20260504183030 23 223 12.9 24.1 0.00 0.00 0.00 49 1013.5
20260504182016 22 194 9.7 16.1 0.00 0.00 0.00 50 1013.7
20260504181021 22 197 14.5 19.3 0.00 0.00 0.00 50 1013.9
20260504180025 22 214 12.9 19.3 0.00 0.00 0.00 49 1014.0
20260504175031 22 217 11.3 17.7 0.00 0.00 0.00 50 1014.0
20260504174017 22 182 12.9 25.7 0.00 0.00 0.00 51 1014.1
20260504173022 22 251 14.5 29.0 0.00 0.00 0.00 50 1014.2
20260504172027 21 196 6.4 11.3 0.00 0.00 0.00 52 1014.5